Location: *
(45.9500°N, 9.0833°E)
Time: 00:43:11
(UTC+00:00)

Vanguard 2 Rocket - Pass Details

Date: 22 June 2021
Orbit: 555 x 3325 km, 32.9° (Epoch: 03 August)

Event Time Altitude Azimuth Distance (km) Brightness Sun altitude
Rises 18:59:21 0° 246° (WSW) 7,231 12.0 1.9°
Reaches altitude 10° 19:04:22 10° 242° (WSW) 6,276 11.6 1.1°
Maximum altitude 19:23:14 51° 175° (S) 3,481 9.6 -1.5°
Drops below altitude 10° 19:37:05 10° 106° (ESE) 4,736 10.0 -3.4°
Sets 19:40:16 0° 101° (E) 5,417 10.3 -3.9°
